カタログに戻る

STARLINK-11432

運用中通信VLEO
NORAD 62882·PAYLOAD·🇺🇸 United States

打ち上げ Feb 4, 2025 から Cape Canaveral Space Force Station

Loading…

次のパス (今後24時間)

TLE

最新Source: CelesTrak SupGP

元期: Sep 14, 2026, 21:21 UTC

1 62882C 25024D   26257.89006944 -.00057734  00000+0 -44865-3 0  2575
2 62882  43.0001 121.2375 0001520 273.8295 333.3945 15.70854876    13

AllMySatでSTARLINK-11432をリアルタイム追跡

Download on the App Store